TimeCST,TemperatureF,Dew PointF,Humidity,Sea Level PressureIn,VisibilityMPH,Wind Direction,Wind SpeedMPH,Gust SpeedMPH,PrecipitationIn,Events,Conditions,WindDirDegrees,DateUTC
12:51 AM,66.9,63.0,87,30.15,10.0,North,11.5,-,N/A,,Partly Cloudy,360,2012-12-05 06:51:00
1:51 AM,66.0,62.1,87,30.15,10.0,NNE,9.2,-,N/A,,Partly Cloudy,20,2012-12-05 07:51:00
2:51 AM,64.9,60.1,84,30.15,10.0,North,9.2,-,N/A,,Partly Cloudy,360,2012-12-05 08:51:00
3:51 AM,63.0,59.0,87,30.15,10.0,North,8.1,-,N/A,,Partly Cloudy,360,2012-12-05 09:51:00
4:51 AM,62.1,53.1,72,30.16,10.0,North,12.7,-,N/A,,Partly Cloudy,10,2012-12-05 10:51:00
5:51 AM,60.1,51.1,72,30.17,10.0,North,9.2,-,N/A,,Partly Cloudy,10,2012-12-05 11:51:00
6:51 AM,57.9,48.9,72,30.19,10.0,North,10.4,-,N/A,,Partly Cloudy,350,2012-12-05 12:51:00
8:51 AM,62.1,45.0,53,30.22,10.0,North,11.5,-,N/A,,Clear,350,2012-12-05 14:51:00
9:51 AM,64.4,44.6,49,30.22,10.0,North,10.4,-,N/A,,Clear,350,2012-12-05 15:51:00
10:51 AM,69.1,46.9,45,30.20,10.0,North,11.5,-,N/A,,Clear,360,2012-12-05 16:51:00
11:51 AM,73.9,48.0,40,30.18,10.0,North,9.2,-,N/A,,Clear,350,2012-12-05 17:51:00
12:51 PM,77.0,46.9,34,30.13,10.0,North,10.4,-,N/A,,Clear,360,2012-12-05 18:51:00
1:51 PM,78.1,48.0,35,30.10,10.0,NE,10.4,-,N/A,,Clear,40,2012-12-05 19:51:00
2:51 PM,80.1,46.9,31,30.06,10.0,NNE,11.5,-,N/A,,Clear,30,2012-12-05 20:51:00
3:51 PM,79.0,45.0,30,30.05,10.0,NE,5.8,-,N/A,,Clear,40,2012-12-05 21:51:00
4:51 PM,78.1,43.0,29,30.04,10.0,North,9.2,-,N/A,,Clear,10,2012-12-05 22:51:00
5:51 PM,71.1,46.9,42,30.05,10.0,East,8.1,-,N/A,,Clear,90,2012-12-05 23:51:00
6:51 PM,68.0,57.0,68,30.06,10.0,East,9.2,-,N/A,,Clear,100,2012-12-06 00:51:00
7:51 PM,64.0,55.0,73,30.07,10.0,ESE,5.8,-,N/A,,Clear,120,2012-12-06 01:51:00
8:51 PM,61.0,52.0,72,30.08,10.0,SSE,4.6,-,N/A,,Partly Cloudy,160,2012-12-06 02:51:00
9:51 PM,57.0,51.1,81,30.07,10.0,Calm,Calm,-,N/A,,Partly Cloudy,0,2012-12-06 03:51:00
10:51 PM,57.9,51.1,78,30.06,10.0,Calm,Calm,-,N/A,,Partly Cloudy,0,2012-12-06 04:51:00
11:47 PM,53.6,48.2,82,30.05,7.0,Calm,Calm,-,N/A,Fog,Patches of Fog,0,2012-12-06 05:47:00
11:51 PM,55.0,50.0,83,30.05,7.0,Calm,Calm,-,N/A,Fog,Patches of Fog,0,2012-12-06 05:51:00